Year,Month,Day,Hour,Minute,Value (Times are PST for temperature in C)
2009,09,15,00,00,12.30
2009,09,15,00,01,12.30
2009,09,15,00,02,12.30
2009,09,15,00,03,12.30
2009,09,15,00,04,12.30
2009,09,15,00,05,12.30
2009,09,15,00,06,12.30
2009,09,15,00,07,12.30
2009,09,15,00,08,12.30
2009,09,15,00,09,12.30
2009,09,15,00,10,12.30
2009,09,15,00,11,12.30
2009,09,15,00,12,12.30
2009,09,15,00,13,12.30
2009,09,15,00,14,12.30
2009,09,15,00,15,12.40
2009,09,15,00,16,12.40
2009,09,15,00,17,12.50
2009,09,15,00,18,12.50
2009,09,15,00,19,12.60
2009,09,15,00,20,12.60
2009,09,15,00,21,12.60
2009,09,15,00,22,12.70
2009,09,15,00,23,12.70
2009,09,15,00,24,12.80
2009,09,15,00,25,12.80
2009,09,15,00,26,12.80
2009,09,15,00,27,12.80
2009,09,15,00,28,12.80
2009,09,15,00,29,12.80
2009,09,15,00,30,12.80
2009,09,15,00,31,12.80
2009,09,15,00,32,12.80
2009,09,15,00,33,12.80
2009,09,15,00,34,12.90
2009,09,15,00,35,12.90
2009,09,15,00,36,12.90
2009,09,15,00,37,12.90
2009,09,15,00,38,12.90
2009,09,15,00,39,12.90
2009,09,15,00,40,12.90
2009,09,15,00,41,13.00
2009,09,15,00,42,13.00
2009,09,15,00,43,13.00
2009,09,15,00,44,13.00
2009,09,15,00,45,13.10
2009,09,15,00,46,13.10
2009,09,15,00,47,13.10
2009,09,15,00,48,13.10
2009,09,15,00,49,13.10
2009,09,15,00,50,13.10
2009,09,15,00,51,13.10
2009,09,15,00,52,13.10
2009,09,15,00,53,13.10
2009,09,15,00,54,13.10
2009,09,15,00,55,13.10
2009,09,15,00,56,13.10
2009,09,15,00,57,13.10
2009,09,15,00,58,13.10
2009,09,15,00,59,13.10
2009,09,15,01,00,13.10
2009,09,15,01,01,13.10
2009,09,15,01,02,13.10
2009,09,15,01,03,13.10
2009,09,15,01,04,13.10
2009,09,15,01,05,13.10
2009,09,15,01,06,13.20
2009,09,15,01,07,13.20
2009,09,15,01,08,13.20
2009,09,15,01,09,13.20
2009,09,15,01,10,13.20
2009,09,15,01,11,13.20
2009,09,15,01,12,13.20
2009,09,15,01,13,13.20
2009,09,15,01,14,13.20
2009,09,15,01,15,13.20
2009,09,15,01,16,13.20
2009,09,15,01,17,13.20
2009,09,15,01,18,13.20
2009,09,15,01,19,13.20
2009,09,15,01,20,13.20
2009,09,15,01,21,13.20
2009,09,15,01,22,13.20
2009,09,15,01,23,13.30
2009,09,15,01,24,13.30
2009,09,15,01,25,13.30
2009,09,15,01,26,13.30
2009,09,15,01,27,13.30
2009,09,15,01,28,13.30
2009,09,15,01,29,13.20
2009,09,15,01,30,13.20
2009,09,15,01,31,13.20
2009,09,15,01,32,13.20
2009,09,15,01,33,13.20
2009,09,15,01,34,13.20
2009,09,15,01,35,13.10
2009,09,15,01,36,13.10
2009,09,15,01,37,13.10
2009,09,15,01,38,13.10
2009,09,15,01,39,13.10
2009,09,15,01,40,13.10
2009,09,15,01,41,13.10
2009,09,15,01,42,13.10
2009,09,15,01,43,13.10
2009,09,15,01,44,13.10
2009,09,15,01,45,13.20
2009,09,15,01,46,13.20
2009,09,15,01,47,13.20
2009,09,15,01,48,13.30
2009,09,15,01,49,13.30
2009,09,15,01,50,13.30
2009,09,15,01,51,13.30
2009,09,15,01,52,13.30
2009,09,15,01,53,13.30
2009,09,15,01,54,13.30
2009,09,15,01,55,13.30
2009,09,15,01,56,13.30
2009,09,15,01,57,13.30
2009,09,15,01,58,13.30
2009,09,15,01,59,13.30
2009,09,15,02,00,13.30
2009,09,15,02,01,13.30
2009,09,15,02,02,13.30
2009,09,15,02,03,13.30
2009,09,15,02,04,13.30
2009,09,15,02,05,13.20
2009,09,15,02,06,13.20
2009,09,15,02,07,13.20
2009,09,15,02,08,13.20
2009,09,15,02,09,13.20
2009,09,15,02,10,13.10
2009,09,15,02,11,13.10
2009,09,15,02,12,13.10
2009,09,15,02,13,13.10
2009,09,15,02,14,13.00
2009,09,15,02,15,13.00
2009,09,15,02,16,13.00
2009,09,15,02,17,13.00
2009,09,15,02,18,12.90
2009,09,15,02,19,12.90
2009,09,15,02,20,12.90
2009,09,15,02,21,12.90
2009,09,15,02,22,12.90
2009,09,15,02,23,12.90
2009,09,15,02,24,12.90
2009,09,15,02,25,12.90
2009,09,15,02,26,12.90
2009,09,15,02,27,12.90
2009,09,15,02,28,12.90
2009,09,15,02,29,12.90
2009,09,15,02,30,12.90
2009,09,15,02,31,12.80
2009,09,15,02,32,12.80
2009,09,15,02,33,12.80
2009,09,15,02,34,12.80
2009,09,15,02,35,12.70
2009,09,15,02,36,12.70
2009,09,15,02,37,12.70
2009,09,15,02,38,12.70
2009,09,15,02,39,12.70
2009,09,15,02,40,12.70
2009,09,15,02,41,12.60
2009,09,15,02,42,12.60
2009,09,15,02,43,12.60
2009,09,15,02,44,12.50
2009,09,15,02,45,12.50
2009,09,15,02,46,12.50
2009,09,15,02,47,12.60
2009,09,15,02,48,12.60
2009,09,15,02,49,12.60
2009,09,15,02,50,12.60
2009,09,15,02,51,12.60
2009,09,15,02,52,12.60
2009,09,15,02,53,12.50
2009,09,15,02,54,12.50
2009,09,15,02,55,12.50
2009,09,15,02,56,12.50
2009,09,15,02,57,12.50
2009,09,15,02,58,12.50
2009,09,15,02,59,12.50
2009,09,15,03,00,12.50
2009,09,15,03,01,12.50
2009,09,15,03,02,12.50
2009,09,15,03,03,12.60
2009,09,15,03,04,12.60
2009,09,15,03,05,12.60
2009,09,15,03,06,12.70
2009,09,15,03,07,12.70
2009,09,15,03,08,12.70
2009,09,15,03,09,12.80
2009,09,15,03,10,12.80
2009,09,15,03,11,12.80
2009,09,15,03,12,12.80
2009,09,15,03,13,12.80
2009,09,15,03,14,12.80
2009,09,15,03,15,12.80
2009,09,15,03,16,12.80
2009,09,15,03,17,12.80
2009,09,15,03,18,12.80
2009,09,15,03,19,12.80
2009,09,15,03,20,12.80
2009,09,15,03,21,12.80
2009,09,15,03,22,12.80
2009,09,15,03,23,12.70
2009,09,15,03,24,12.70
2009,09,15,03,25,12.70
2009,09,15,03,26,12.70
2009,09,15,03,27,12.70
2009,09,15,03,28,12.70
2009,09,15,03,29,12.70
2009,09,15,03,30,12.70
2009,09,15,03,31,12.70
2009,09,15,03,32,12.80
2009,09,15,03,33,12.80
2009,09,15,03,34,12.80
2009,09,15,03,35,12.80
2009,09,15,03,36,12.80
2009,09,15,03,37,12.80
2009,09,15,03,38,12.80
2009,09,15,03,39,12.80
2009,09,15,03,40,12.80
2009,09,15,03,41,12.80
2009,09,15,03,42,12.80
2009,09,15,03,43,12.80
2009,09,15,03,44,12.80
2009,09,15,03,45,12.90
2009,09,15,03,46,12.90
2009,09,15,03,47,13.00
2009,09,15,03,48,13.00
2009,09,15,03,49,13.10
2009,09,15,03,50,13.10
2009,09,15,03,51,13.10
2009,09,15,03,52,13.10
2009,09,15,03,53,13.10
2009,09,15,03,54,13.10
2009,09,15,03,55,13.10
2009,09,15,03,56,13.10
2009,09,15,03,57,13.10
2009,09,15,03,58,13.10
2009,09,15,03,59,13.10
2009,09,15,04,00,13.00
2009,09,15,04,01,13.00
2009,09,15,04,02,13.00
2009,09,15,04,03,13.00
2009,09,15,04,04,13.00
2009,09,15,04,05,13.00
2009,09,15,04,06,12.90
2009,09,15,04,07,12.90
2009,09,15,04,08,12.80
2009,09,15,04,09,12.80
2009,09,15,04,10,12.80
2009,09,15,04,11,12.80
2009,09,15,04,12,12.80
2009,09,15,04,13,12.80
2009,09,15,04,14,12.80
2009,09,15,04,15,12.80
2009,09,15,04,16,12.80
2009,09,15,04,17,12.80
2009,09,15,04,18,12.80
2009,09,15,04,19,12.80
2009,09,15,04,20,12.80
2009,09,15,04,21,12.80
2009,09,15,04,22,12.80
2009,09,15,04,23,12.80
2009,09,15,04,24,12.80
2009,09,15,04,25,12.80
2009,09,15,04,26,12.80
2009,09,15,04,27,12.80
2009,09,15,04,28,12.80
2009,09,15,04,29,12.80
2009,09,15,04,30,12.80
2009,09,15,04,31,12.80
2009,09,15,04,32,12.80
2009,09,15,04,33,12.80
2009,09,15,04,34,12.80
2009,09,15,04,35,12.80
2009,09,15,04,36,12.80
2009,09,15,04,37,12.80
2009,09,15,04,38,12.80
2009,09,15,04,39,12.80
2009,09,15,04,40,12.80
2009,09,15,04,41,12.90
2009,09,15,04,42,12.90
2009,09,15,04,43,12.90
2009,09,15,04,44,12.90
2009,09,15,04,45,13.00
2009,09,15,04,46,13.00
2009,09,15,04,47,13.00
2009,09,15,04,48,13.00
2009,09,15,04,49,13.10
2009,09,15,04,50,13.10
2009,09,15,04,51,13.10
2009,09,15,04,52,13.10
2009,09,15,04,53,13.10
2009,09,15,04,54,13.10
2009,09,15,04,55,13.10
2009,09,15,04,56,13.10
2009,09,15,04,57,13.10
2009,09,15,04,58,13.10
2009,09,15,04,59,13.00
2009,09,15,05,00,13.00
2009,09,15,05,01,13.00
2009,09,15,05,02,13.00
2009,09,15,05,03,13.00
2009,09,15,05,04,13.00
2009,09,15,05,05,13.00
2009,09,15,05,06,13.00
2009,09,15,05,07,13.00
2009,09,15,05,08,13.00
2009,09,15,05,09,13.00
2009,09,15,05,10,12.90
2009,09,15,05,11,13.00
2009,09,15,05,12,13.00
2009,09,15,05,13,13.10
2009,09,15,05,14,13.10
2009,09,15,05,15,13.20
2009,09,15,05,16,13.30
2009,09,15,05,17,13.30
2009,09,15,05,18,13.30
2009,09,15,05,19,13.40
2009,09,15,05,20,13.40
2009,09,15,05,21,13.40
2009,09,15,05,22,13.40
2009,09,15,05,23,13.50
2009,09,15,05,24,13.50
2009,09,15,05,25,13.50
2009,09,15,05,26,13.50
2009,09,15,05,27,13.50
2009,09,15,05,28,13.50
2009,09,15,05,29,13.60
2009,09,15,05,30,13.60
2009,09,15,05,31,13.60
2009,09,15,05,32,13.60
2009,09,15,05,33,13.60
2009,09,15,05,34,13.60
2009,09,15,05,35,13.70
2009,09,15,05,36,13.70
2009,09,15,05,37,13.70
2009,09,15,05,38,13.70
2009,09,15,05,39,13.70
2009,09,15,05,40,13.70
2009,09,15,05,41,13.70
2009,09,15,05,42,13.70
2009,09,15,05,43,13.70
2009,09,15,05,44,13.70
2009,09,15,05,45,13.70
2009,09,15,05,46,13.70
2009,09,15,05,47,13.70
2009,09,15,05,48,13.60
2009,09,15,05,49,13.60
2009,09,15,05,50,13.60
2009,09,15,05,51,13.60
2009,09,15,05,52,13.50
2009,09,15,05,53,13.40
2009,09,15,05,54,13.40
2009,09,15,05,55,13.40
2009,09,15,05,56,13.30
2009,09,15,05,57,13.30
2009,09,15,05,58,13.30
2009,09,15,05,59,13.30
2009,09,15,06,00,13.20
2009,09,15,06,01,13.20
2009,09,15,06,02,13.10
2009,09,15,06,03,13.00
2009,09,15,06,04,13.00
2009,09,15,06,05,13.00
2009,09,15,06,06,13.10
2009,09,15,06,07,13.10
2009,09,15,06,08,13.10
2009,09,15,06,09,13.20
2009,09,15,06,10,13.20
2009,09,15,06,11,13.20
2009,09,15,06,12,13.20
2009,09,15,06,13,13.20
2009,09,15,06,14,13.20
2009,09,15,06,15,13.20
2009,09,15,06,16,13.20
2009,09,15,06,17,13.10
2009,09,15,06,18,13.10
2009,09,15,06,19,13.10
2009,09,15,06,20,13.10
2009,09,15,06,21,13.10
2009,09,15,06,22,13.10
2009,09,15,06,23,13.10
2009,09,15,06,24,13.20
2009,09,15,06,25,13.20
2009,09,15,06,26,13.20
2009,09,15,06,27,13.20
2009,09,15,06,28,13.10
2009,09,15,06,29,13.10
2009,09,15,06,30,13.10
2009,09,15,06,31,13.10
2009,09,15,06,32,13.10
2009,09,15,06,33,13.10
2009,09,15,06,34,13.10
2009,09,15,06,35,13.10
2009,09,15,06,36,13.10
2009,09,15,06,37,13.20
2009,09,15,06,38,13.20
2009,09,15,06,39,13.20
2009,09,15,06,40,13.20
2009,09,15,06,41,13.20
2009,09,15,06,42,13.20
2009,09,15,06,43,13.10
2009,09,15,06,44,13.10
2009,09,15,06,45,13.10
2009,09,15,06,46,13.10
2009,09,15,06,47,13.10
2009,09,15,06,48,13.10
2009,09,15,06,49,13.10
2009,09,15,06,50,13.10
2009,09,15,06,51,13.10
2009,09,15,06,52,13.10
2009,09,15,06,53,13.10
2009,09,15,06,54,13.10
2009,09,15,06,55,13.10
2009,09,15,06,56,13.10
2009,09,15,06,57,13.10
2009,09,15,06,58,13.10
2009,09,15,06,59,13.10
2009,09,15,07,00,13.10
2009,09,15,07,01,13.10
2009,09,15,07,02,13.10
2009,09,15,07,03,13.10
2009,09,15,07,04,13.10
2009,09,15,07,05,13.10
2009,09,15,07,06,13.10
2009,09,15,07,07,13.10
2009,09,15,07,08,13.10
2009,09,15,07,09,13.10
2009,09,15,07,10,13.20
2009,09,15,07,11,13.20
2009,09,15,07,12,13.20
2009,09,15,07,13,13.20
2009,09,15,07,14,13.20
2009,09,15,07,15,13.20
2009,09,15,07,16,13.20
2009,09,15,07,17,13.20
2009,09,15,07,18,13.20
2009,09,15,07,19,13.20
2009,09,15,07,20,13.20
2009,09,15,07,21,13.20
2009,09,15,07,22,13.20
2009,09,15,07,23,13.30
2009,09,15,07,24,13.30
2009,09,15,07,25,13.30
2009,09,15,07,26,13.30
2009,09,15,07,27,13.30
2009,09,15,07,28,13.30
2009,09,15,07,29,13.30
2009,09,15,07,30,13.30
2009,09,15,07,31,13.30
2009,09,15,07,32,13.30
2009,09,15,07,33,13.30
2009,09,15,07,34,13.30
2009,09,15,07,35,13.30
2009,09,15,07,36,13.30
2009,09,15,07,37,13.30
2009,09,15,07,38,13.30
2009,09,15,07,39,13.40
2009,09,15,07,40,13.40
2009,09,15,07,41,13.40
2009,09,15,07,42,13.40
2009,09,15,07,43,13.40
2009,09,15,07,44,13.40
2009,09,15,07,45,13.50
2009,09,15,07,46,13.50
2009,09,15,07,47,13.50
2009,09,15,07,48,13.50
2009,09,15,07,49,13.50
2009,09,15,07,50,13.50
2009,09,15,07,51,13.60
2009,09,15,07,52,13.60
2009,09,15,07,53,13.60
2009,09,15,07,54,13.60
2009,09,15,07,55,13.60
2009,09,15,07,56,13.60
2009,09,15,07,57,13.60
2009,09,15,07,58,13.60
2009,09,15,07,59,13.60
2009,09,15,08,00,13.60
2009,09,15,08,01,13.60
2009,09,15,08,02,13.60
2009,09,15,08,03,13.60
2009,09,15,08,04,13.60
2009,09,15,08,05,13.60
2009,09,15,08,06,13.60
2009,09,15,08,07,13.60
2009,09,15,08,08,13.50
2009,09,15,08,09,13.50
2009,09,15,08,10,13.50
2009,09,15,08,11,13.50
2009,09,15,08,12,13.40
2009,09,15,08,13,13.40
2009,09,15,08,14,13.40
2009,09,15,08,15,13.40
2009,09,15,08,16,13.40
2009,09,15,08,17,13.30
2009,09,15,08,18,13.30
2009,09,15,08,19,13.30
2009,09,15,08,20,13.30
2009,09,15,08,21,13.30
2009,09,15,08,22,13.30
2009,09,15,08,23,13.30
2009,09,15,08,24,13.30
2009,09,15,08,25,13.30
2009,09,15,08,26,13.30
2009,09,15,08,27,13.40
2009,09,15,08,28,13.40
2009,09,15,08,29,13.40
2009,09,15,08,30,13.40
2009,09,15,08,31,13.40
2009,09,15,08,32,13.50
2009,09,15,08,33,13.50
2009,09,15,08,34,13.50
2009,09,15,08,35,13.50
2009,09,15,08,36,13.60
2009,09,15,08,37,13.60
2009,09,15,08,38,13.60
2009,09,15,08,39,13.60
2009,09,15,08,40,13.60
2009,09,15,08,41,13.70
2009,09,15,08,42,13.70
2009,09,15,08,43,13.70
2009,09,15,08,44,13.70
2009,09,15,08,45,13.70
2009,09,15,08,46,13.70
2009,09,15,08,47,13.70
2009,09,15,08,48,13.70
2009,09,15,08,49,13.70
2009,09,15,08,50,13.70
2009,09,15,08,51,13.70
2009,09,15,08,52,13.70
2009,09,15,08,53,13.70
2009,09,15,08,54,13.80
2009,09,15,08,55,13.80
2009,09,15,08,56,13.80
2009,09,15,08,57,13.80
2009,09,15,08,58,13.80
2009,09,15,08,59,13.80
2009,09,15,09,00,13.80
2009,09,15,09,01,13.90
2009,09,15,09,02,13.90
2009,09,15,09,03,13.90
2009,09,15,09,04,13.90
2009,09,15,09,05,13.90
2009,09,15,09,06,13.90
2009,09,15,09,07,13.90
2009,09,15,09,08,13.90
2009,09,15,09,09,14.00
2009,09,15,09,10,14.00
2009,09,15,09,11,14.00
2009,09,15,09,12,14.00
2009,09,15,09,13,13.90
2009,09,15,09,14,13.90
2009,09,15,09,15,13.80
2009,09,15,09,16,13.70
2009,09,15,09,17,13.70
2009,09,15,09,18,13.60
2009,09,15,09,19,13.50
2009,09,15,09,20,13.40
2009,09,15,09,21,13.30
2009,09,15,09,22,13.30
2009,09,15,09,23,13.30
2009,09,15,09,24,13.30
2009,09,15,09,25,13.30
2009,09,15,09,26,13.30
2009,09,15,09,27,13.30
2009,09,15,09,28,13.40
2009,09,15,09,29,13.40
2009,09,15,09,30,13.50
2009,09,15,09,31,13.50
2009,09,15,09,32,13.50
2009,09,15,09,33,13.50
2009,09,15,09,34,13.50
2009,09,15,09,35,13.50
2009,09,15,09,36,13.50
2009,09,15,09,37,13.50
2009,09,15,09,38,13.50
2009,09,15,09,39,13.60
2009,09,15,09,40,13.60
2009,09,15,09,41,13.60
2009,09,15,09,42,13.60
2009,09,15,09,43,13.60
2009,09,15,09,44,13.60
2009,09,15,09,45,13.60
2009,09,15,09,46,13.60
2009,09,15,09,47,13.60
2009,09,15,09,48,13.60
2009,09,15,09,49,13.60
2009,09,15,09,50,13.60
2009,09,15,09,51,13.60
2009,09,15,09,52,13.60
2009,09,15,09,53,13.60
2009,09,15,09,54,13.60
2009,09,15,09,55,13.60
2009,09,15,09,56,13.60
2009,09,15,09,57,13.60
2009,09,15,09,58,13.60
2009,09,15,09,59,13.70
2009,09,15,10,00,13.70
2009,09,15,10,01,13.70
2009,09,15,10,02,13.70
2009,09,15,10,03,13.70
2009,09,15,10,04,13.70
2009,09,15,10,05,13.70
2009,09,15,10,06,13.70
2009,09,15,10,07,13.70
2009,09,15,10,08,13.70
2009,09,15,10,09,13.70
2009,09,15,10,10,13.70
2009,09,15,10,11,13.60
2009,09,15,10,12,13.60
2009,09,15,10,13,13.60
2009,09,15,10,14,13.60
2009,09,15,10,15,13.60
2009,09,15,10,16,13.60
2009,09,15,10,17,13.50
2009,09,15,10,18,13.50
2009,09,15,10,19,13.40
2009,09,15,10,20,13.40
2009,09,15,10,21,13.40
2009,09,15,10,22,13.40
2009,09,15,10,23,13.30
2009,09,15,10,24,13.30
2009,09,15,10,25,13.30
2009,09,15,10,26,13.30
2009,09,15,10,27,13.30
2009,09,15,10,28,13.30
2009,09,15,10,29,13.20
2009,09,15,10,30,13.20
2009,09,15,10,31,13.20
2009,09,15,10,32,13.20
2009,09,15,10,33,13.20
2009,09,15,10,34,13.20
2009,09,15,10,35,13.20
2009,09,15,10,36,13.20
2009,09,15,10,37,13.20
2009,09,15,10,38,13.10
2009,09,15,10,39,13.10
2009,09,15,10,40,13.10
2009,09,15,10,41,13.10
2009,09,15,10,42,13.10
2009,09,15,10,43,13.10
2009,09,15,10,44,13.20
2009,09,15,10,45,13.20
2009,09,15,10,46,13.10
2009,09,15,10,47,13.10
2009,09,15,10,48,13.00
2009,09,15,10,49,13.00
2009,09,15,10,50,13.00
2009,09,15,10,51,12.90
2009,09,15,10,52,12.80
2009,09,15,10,53,12.90
2009,09,15,10,54,12.90
2009,09,15,10,55,12.90
2009,09,15,10,56,13.00
2009,09,15,10,57,13.00
2009,09,15,10,58,13.10
2009,09,15,10,59,13.10
2009,09,15,11,00,13.10
2009,09,15,11,01,13.10
2009,09,15,11,02,13.20
2009,09,15,11,03,13.20
2009,09,15,11,04,13.10
2009,09,15,11,05,13.10
2009,09,15,11,06,13.10
2009,09,15,11,07,13.00
2009,09,15,11,08,13.00
2009,09,15,11,09,13.00
2009,09,15,11,10,13.10
2009,09,15,11,11,13.10
2009,09,15,11,12,13.10
2009,09,15,11,13,13.20
2009,09,15,11,14,13.20
2009,09,15,11,15,13.20
2009,09,15,11,16,13.30
2009,09,15,11,17,13.30
2009,09,15,11,18,13.30
2009,09,15,11,19,13.30
2009,09,15,11,20,13.30
2009,09,15,11,21,13.40
2009,09,15,11,22,13.50
2009,09,15,11,23,13.50
2009,09,15,11,24,13.60
2009,09,15,11,25,13.60
2009,09,15,11,26,13.70
2009,09,15,11,27,13.70
2009,09,15,11,28,13.70
2009,09,15,11,29,13.80
2009,09,15,11,30,13.80
2009,09,15,11,31,13.80
2009,09,15,11,32,13.80
2009,09,15,11,33,13.90
2009,09,15,11,34,13.90
2009,09,15,11,35,13.90
2009,09,15,11,36,13.90
2009,09,15,11,37,14.00
2009,09,15,11,38,14.00
2009,09,15,11,39,14.10
2009,09,15,11,40,14.10
2009,09,15,11,41,14.20
2009,09,15,11,42,14.20
2009,09,15,11,43,14.20
2009,09,15,11,44,14.30
2009,09,15,11,45,14.30
2009,09,15,11,46,14.40
2009,09,15,11,47,14.50
2009,09,15,11,48,14.50
2009,09,15,11,49,14.60
2009,09,15,11,50,14.50
2009,09,15,11,51,14.60
2009,09,15,11,52,14.60
2009,09,15,11,53,14.70
2009,09,15,11,54,14.80
2009,09,15,11,55,14.80
2009,09,15,11,56,14.80
2009,09,15,11,57,14.80
2009,09,15,11,58,14.90
2009,09,15,11,59,15.00
2009,09,15,12,00,15.00
2009,09,15,12,01,15.20
2009,09,15,12,02,15.30
2009,09,15,12,03,15.40
2009,09,15,12,04,15.50
2009,09,15,12,05,15.60
2009,09,15,12,06,15.80
2009,09,15,12,07,15.80
2009,09,15,12,08,16.00
2009,09,15,12,09,16.10
2009,09,15,12,10,16.10
2009,09,15,12,11,16.20
2009,09,15,12,12,16.30
2009,09,15,12,13,16.40
2009,09,15,12,14,16.50
2009,09,15,12,15,16.60
2009,09,15,12,16,16.70
2009,09,15,12,17,16.80
2009,09,15,12,18,16.90
2009,09,15,12,19,16.90
2009,09,15,12,20,17.00
2009,09,15,12,21,17.00
2009,09,15,12,22,17.10
2009,09,15,12,23,17.30
2009,09,15,12,24,17.40
2009,09,15,12,25,17.50
2009,09,15,12,26,17.60
2009,09,15,12,27,17.70
2009,09,15,12,28,17.80
2009,09,15,12,29,17.90
2009,09,15,12,30,18.00
2009,09,15,12,31,18.10
2009,09,15,12,32,18.20
2009,09,15,12,33,18.20
2009,09,15,12,34,18.30
2009,09,15,12,35,18.30
2009,09,15,12,36,18.20
2009,09,15,12,37,18.20
2009,09,15,12,38,18.20
2009,09,15,12,39,18.20
2009,09,15,12,40,18.20
2009,09,15,12,41,18.20
2009,09,15,12,42,18.20
2009,09,15,12,43,18.20
2009,09,15,12,44,18.30
2009,09,15,12,45,18.40
2009,09,15,12,46,18.50
2009,09,15,12,47,18.50
2009,09,15,12,48,18.50
2009,09,15,12,49,18.60
2009,09,15,12,50,18.60
2009,09,15,12,51,18.70
2009,09,15,12,52,18.70
2009,09,15,12,53,18.70
2009,09,15,12,54,18.80
2009,09,15,12,55,18.90
2009,09,15,12,56,18.90
2009,09,15,12,57,18.90
2009,09,15,12,58,18.90
2009,09,15,12,59,19.00
2009,09,15,13,00,19.10
2009,09,15,13,01,19.10
2009,09,15,13,02,19.10
2009,09,15,13,03,19.00
2009,09,15,13,04,19.00
2009,09,15,13,05,19.10
2009,09,15,13,06,19.10
2009,09,15,13,07,19.10
2009,09,15,13,08,19.10
2009,09,15,13,09,19.20
2009,09,15,13,10,19.30
2009,09,15,13,11,19.30
2009,09,15,13,12,19.40
2009,09,15,13,13,19.40
2009,09,15,13,14,19.40
2009,09,15,13,15,19.50
2009,09,15,13,16,19.60
2009,09,15,13,17,19.50
2009,09,15,13,18,19.50
2009,09,15,13,19,19.50
2009,09,15,13,20,19.50
2009,09,15,13,21,19.50
2009,09,15,13,22,19.40
2009,09,15,13,23,19.40
2009,09,15,13,24,19.30
2009,09,15,13,25,19.30
2009,09,15,13,26,19.40
2009,09,15,13,27,19.40
2009,09,15,13,28,19.40
2009,09,15,13,29,19.50
2009,09,15,13,30,19.60
2009,09,15,13,31,19.60
2009,09,15,13,32,19.70
2009,09,15,13,33,19.70
2009,09,15,13,34,19.60
2009,09,15,13,35,19.70
2009,09,15,13,36,19.70
2009,09,15,13,37,19.80
2009,09,15,13,38,19.90
2009,09,15,13,39,19.90
2009,09,15,13,40,20.00
2009,09,15,13,41,20.10
2009,09,15,13,42,20.20
2009,09,15,13,43,20.20
2009,09,15,13,44,20.20
2009,09,15,13,45,20.30
2009,09,15,13,46,20.30
2009,09,15,13,47,20.30
2009,09,15,13,48,20.40
2009,09,15,13,49,20.40
2009,09,15,13,50,20.40
2009,09,15,13,51,20.30
2009,09,15,13,52,20.30
2009,09,15,13,53,20.30
2009,09,15,13,54,20.20
2009,09,15,13,55,20.20
2009,09,15,13,56,20.20
2009,09,15,13,57,20.10
2009,09,15,13,58,20.10
2009,09,15,13,59,20.10
2009,09,15,14,00,20.20
2009,09,15,14,01,20.20
2009,09,15,14,02,20.20
2009,09,15,14,03,20.20
2009,09,15,14,04,20.20
2009,09,15,14,05,20.20
2009,09,15,14,06,20.20
2009,09,15,14,07,20.20
2009,09,15,14,08,20.20
2009,09,15,14,09,20.20
2009,09,15,14,10,20.20
2009,09,15,14,11,20.20
2009,09,15,14,12,20.20
2009,09,15,14,13,20.20
2009,09,15,14,14,20.20
2009,09,15,14,15,20.20
2009,09,15,14,16,20.20
2009,09,15,14,17,20.20
2009,09,15,14,18,20.20
2009,09,15,14,19,20.20
2009,09,15,14,20,20.20
2009,09,15,14,21,20.20
2009,09,15,14,22,20.30
2009,09,15,14,23,20.30
2009,09,15,14,24,20.30
2009,09,15,14,25,20.40
2009,09,15,14,26,20.40
2009,09,15,14,27,20.40
2009,09,15,14,28,20.40
2009,09,15,14,29,20.50
2009,09,15,14,30,20.60
2009,09,15,14,31,20.70
2009,09,15,14,32,20.80
2009,09,15,14,33,20.90
2009,09,15,14,34,20.90
2009,09,15,14,35,20.90
2009,09,15,14,36,20.90
2009,09,15,14,37,20.80
2009,09,15,14,38,20.80
2009,09,15,14,39,20.80
2009,09,15,14,40,20.70
2009,09,15,14,41,20.70
2009,09,15,14,42,20.60
2009,09,15,14,43,20.60
2009,09,15,14,44,20.60
2009,09,15,14,45,20.60
2009,09,15,14,46,20.60
2009,09,15,14,47,20.60
2009,09,15,14,48,20.60
2009,09,15,14,49,20.60
2009,09,15,14,50,20.60
2009,09,15,14,51,20.60
2009,09,15,14,52,20.60
2009,09,15,14,53,20.50
2009,09,15,14,54,20.50
2009,09,15,14,55,20.50
2009,09,15,14,56,20.60
2009,09,15,14,57,20.60
2009,09,15,14,58,20.70
2009,09,15,14,59,20.70
2009,09,15,15,00,20.80
2009,09,15,15,01,20.80
2009,09,15,15,02,20.90
2009,09,15,15,03,21.00
2009,09,15,15,04,21.00
2009,09,15,15,05,21.10
2009,09,15,15,06,21.20
2009,09,15,15,07,21.30
2009,09,15,15,08,21.30
2009,09,15,15,09,21.30
2009,09,15,15,10,21.30
2009,09,15,15,11,21.30
2009,09,15,15,12,21.30
2009,09,15,15,13,21.30
2009,09,15,15,14,21.40
2009,09,15,15,15,21.50
2009,09,15,15,16,21.60
2009,09,15,15,17,21.60
2009,09,15,15,18,21.60
2009,09,15,15,19,21.60
2009,09,15,15,20,21.70
2009,09,15,15,21,21.80
2009,09,15,15,22,21.90
2009,09,15,15,23,22.00
2009,09,15,15,24,22.10
2009,09,15,15,25,22.20
2009,09,15,15,26,22.30
2009,09,15,15,27,22.40
2009,09,15,15,28,22.60
2009,09,15,15,29,22.60
2009,09,15,15,30,22.70
2009,09,15,15,31,22.80
2009,09,15,15,32,22.80
2009,09,15,15,33,22.70
2009,09,15,15,34,22.50
2009,09,15,15,35,22.30
2009,09,15,15,36,22.10
2009,09,15,15,37,22.00
2009,09,15,15,38,22.00
2009,09,15,15,39,21.90
2009,09,15,15,40,21.70
2009,09,15,15,41,21.50
2009,09,15,15,42,21.40
2009,09,15,15,43,21.20
2009,09,15,15,44,21.10
2009,09,15,15,45,21.00
2009,09,15,15,46,20.90
2009,09,15,15,47,20.80
2009,09,15,15,48,20.80
2009,09,15,15,49,20.70
2009,09,15,15,50,20.60
2009,09,15,15,51,20.70
2009,09,15,15,52,20.70
2009,09,15,15,53,20.80
2009,09,15,15,54,20.90
2009,09,15,15,55,21.00
2009,09,15,15,56,21.10
2009,09,15,15,57,21.20
2009,09,15,15,58,21.30
2009,09,15,15,59,21.50
2009,09,15,16,00,21.60
2009,09,15,16,01,21.80
2009,09,15,16,02,22.00
2009,09,15,16,03,22.10
2009,09,15,16,04,22.20
2009,09,15,16,05,22.40
2009,09,15,16,06,22.50
2009,09,15,16,07,22.60
2009,09,15,16,08,22.70
2009,09,15,16,09,22.90
2009,09,15,16,10,22.90
2009,09,15,16,11,23.10
2009,09,15,16,12,23.10
2009,09,15,16,13,23.20
2009,09,15,16,14,23.30
2009,09,15,16,15,23.30
2009,09,15,16,16,23.30
2009,09,15,16,17,23.10
2009,09,15,16,18,23.00
2009,09,15,16,19,22.90
2009,09,15,16,20,22.90
2009,09,15,16,21,22.90
2009,09,15,16,22,22.90
2009,09,15,16,23,22.80
2009,09,15,16,24,22.80
2009,09,15,16,25,22.80
2009,09,15,16,26,22.80
2009,09,15,16,27,22.80
2009,09,15,16,28,22.70
2009,09,15,16,29,22.70
2009,09,15,16,30,22.70
2009,09,15,16,31,22.60
2009,09,15,16,32,22.60
2009,09,15,16,33,22.60
2009,09,15,16,34,22.60
2009,09,15,16,35,22.60
2009,09,15,16,36,22.60
2009,09,15,16,37,22.60
2009,09,15,16,38,22.70
2009,09,15,16,39,22.70
2009,09,15,16,40,22.80
2009,09,15,16,41,22.80
2009,09,15,16,42,22.80
2009,09,15,16,43,22.80
2009,09,15,16,44,22.80
2009,09,15,16,45,22.80
2009,09,15,16,46,22.70
2009,09,15,16,47,22.70
2009,09,15,16,48,22.60
2009,09,15,16,49,22.60
2009,09,15,16,50,22.60
2009,09,15,16,51,22.60
2009,09,15,16,52,22.70
2009,09,15,16,53,22.70
2009,09,15,16,54,22.70
2009,09,15,16,55,22.70
2009,09,15,16,56,22.80
2009,09,15,16,57,22.80
2009,09,15,16,58,22.80
2009,09,15,16,59,22.80
2009,09,15,17,00,22.70
2009,09,15,17,01,22.60
2009,09,15,17,02,22.60
2009,09,15,17,03,22.60
2009,09,15,17,04,22.60
2009,09,15,17,05,22.50
2009,09,15,17,06,22.50
2009,09,15,17,07,22.40
2009,09,15,17,08,22.40
2009,09,15,17,09,22.40
2009,09,15,17,10,22.30
2009,09,15,17,11,22.30
2009,09,15,17,12,22.20
2009,09,15,17,13,22.10
2009,09,15,17,14,22.10
2009,09,15,17,15,22.00
2009,09,15,17,16,22.00
2009,09,15,17,17,21.90
2009,09,15,17,18,21.90
2009,09,15,17,19,21.90